TimeCDT,TemperatureF,Dew PointF,Humidity,Sea Level PressureIn,VisibilityMPH,Wind Direction,Wind SpeedMPH,Gust SpeedMPH,PrecipitationIn,Events,Conditions,WindDirDegrees,DateUTC
12:53 AM,45.0,44.1,97,29.68,0.2,WSW,5.8,-,N/A,Fog,Fog,250,2013-03-10 06:53:00
1:53 AM,46.0,45.0,96,29.62,0.2,Calm,Calm,-,N/A,Fog,Fog,0,2013-03-10 07:53:00
4:53 AM,46.0,45.0,96,29.62,0.2,Calm,Calm,-,0.00,Fog,Fog,0,2013-03-10 09:53:00
5:53 AM,41.0,39.9,96,29.65,0.2,North,10.4,-,N/A,Fog,Fog,10,2013-03-10 10:53:00
6:40 AM,39.2,37.4,93,29.64,1.2,North,13.8,-,N/A,,Overcast,360,2013-03-10 11:40:00
7:08 AM,37.4,37.4,100,29.65,2.0,North,15.0,24.2,N/A,,Overcast,360,2013-03-10 12:08:00
7:23 AM,37.4,37.4,100,29.66,1.5,North,16.1,-,0.00,Rain,Light Rain,360,2013-03-10 12:23:00
7:38 AM,37.4,35.6,93,29.65,2.0,North,17.3,25.3,0.00,,Overcast,10,2013-03-10 12:38:00
7:53 AM,36.0,35.1,97,29.67,1.5,North,17.3,25.3,0.00,,Overcast,10,2013-03-10 12:53:00
8:53 AM,35.1,34.0,96,29.71,1.2,NNE,12.7,-,0.01,,Overcast,20,2013-03-10 13:53:00
9:24 AM,35.6,33.8,93,29.69,2.0,NNE,17.3,-,0.00,Rain,Light Rain,20,2013-03-10 14:24:00
9:48 AM,35.6,33.8,93,29.67,3.0,North,13.8,23.0,0.00,,Overcast,10,2013-03-10 14:48:00
9:53 AM,35.1,34.0,96,29.70,3.0,North,17.3,23.0,0.00,,Overcast,10,2013-03-10 14:53:00
10:53 AM,35.1,34.0,96,29.72,4.0,NNE,13.8,-,0.00,,Overcast,20,2013-03-10 15:53:00
11:53 AM,35.1,34.0,96,29.70,7.0,NNE,17.3,-,0.00,Rain,Light Rain,30,2013-03-10 16:53:00
12:53 PM,35.1,34.0,96,29.69,5.0,North,11.5,-,0.01,Rain,Light Rain,10,2013-03-10 17:53:00
1:26 PM,35.6,33.8,93,29.64,2.5,North,16.1,-,0.04,Rain,Rain,10,2013-03-10 18:26:00
1:41 PM,35.6,33.8,93,29.64,4.0,NNE,15.0,-,0.06,Rain,Light Rain,20,2013-03-10 18:41:00
1:53 PM,36.0,34.0,93,29.67,5.0,NNE,15.0,-,0.06,Rain,Light Rain,20,2013-03-10 18:53:00
2:53 PM,36.0,34.0,93,29.67,8.0,North,10.4,-,0.05,Rain,Light Rain,360,2013-03-10 19:53:00
3:53 PM,35.1,33.1,92,29.67,9.0,NNW,12.7,-,0.03,,Overcast,340,2013-03-10 20:53:00
4:53 PM,34.0,32.0,92,29.69,10.0,North,11.5,-,0.01,,Overcast,350,2013-03-10 21:53:00
5:53 PM,34.0,30.9,89,29.71,10.0,NNW,15.0,-,N/A,,Overcast,330,2013-03-10 22:53:00
6:53 PM,33.1,30.9,92,29.72,10.0,NNW,15.0,23.0,N/A,,Overcast,330,2013-03-10 23:53:00
7:53 PM,32.0,28.9,88,29.74,10.0,NNW,19.6,25.3,N/A,,Overcast,330,2013-03-11 00:53:00
8:04 PM,32.0,28.4,87,29.71,10.0,NW,17.3,23.0,N/A,,Overcast,320,2013-03-11 01:04:00
8:32 PM,30.2,28.4,93,29.72,10.0,NNW,17.3,25.3,N/A,,Overcast,330,2013-03-11 01:32:00
8:53 PM,30.9,28.0,89,29.76,10.0,NW,17.3,24.2,N/A,,Overcast,320,2013-03-11 01:53:00
9:53 PM,30.0,27.0,88,29.77,10.0,NW,16.1,-,N/A,,Overcast,320,2013-03-11 02:53:00
10:53 PM,30.0,26.1,85,29.78,10.0,NNW,17.3,24.2,N/A,,Overcast,330,2013-03-11 03:53:00
11:53 PM,30.0,26.1,85,29.79,10.0,NNW,18.4,27.6,N/A,,Overcast,330,2013-03-11 04:53:00
12:53 AM,28.9,25.0,85,29.80,10.0,NW,19.6,28.8,N/A,,Overcast,320,2013-03-11 05:53:00